EW4164 Weather Reports


time (UTC)temp
C
wind
direction
speed
KPH
gust
KPH
rain 1hr
cm
rain 24hr
cm
rain mn
cm
humidity
%
barometer
mb
20260502220230 17 233 4.8 12.9 0.00 0.00 0.00 58 1016.3
20260502220049 17 228 4.8 12.9 0.00 0.00 0.00 58 1016.2
20260502215217 17 253 4.8 11.3 0.00 0.00 0.00 59 1016.4
20260502214603 17 230 3.2 16.1 0.00 0.00 0.00 60 1016.2
20260502214232 17 223 4.8 9.7 0.00 0.00 0.00 61 1016.4
20260502213213 17 238 4.8 9.7 0.00 0.00 0.00 62 1016.4
20260502213006 17 247 4.8 12.9 0.00 0.00 0.00 62 1016.1
20260502212215 17 223 4.8 9.7 0.00 0.00 0.00 62 1016.3
20260502211534 17 233 3.2 9.7 0.00 0.00 0.00 63 1016.2
20260502211229 17 202 4.8 12.9 0.00 0.00 0.00 63 1016.4
20260502210221 17 206 4.8 12.9 0.00 0.00 0.00 62 1016.5
20260502210100 17 195 4.8 12.9 0.00 0.00 0.00 62 1016.4
20260502205214 18 216 4.8 11.3 0.00 0.00 0.00 62 1016.5
20260502204604 17 192 4.8 11.3 0.00 0.00 0.00 61 1016.4
20260502204221 18 252 3.2 6.4 0.00 0.00 0.00 61 1016.6
20260502203004 17 236 1.6 8.0 0.00 0.00 0.00 62 1016.5
20260502202221 18 299 1.6 4.8 0.00 0.00 0.00 62 1016.7
20260502201516 18 222 0.0 4.8 0.00 0.00 0.00 62 1016.4
20260502200224 18 215 3.2 9.7 0.00 0.00 0.00 62 1016.8
20260502200028 18 197 3.2 11.3 0.00 0.00 0.00 62 1016.6
20260502195230 18 230 4.8 9.7 0.00 0.00 0.00 63 1016.7
20260502194518 18 213 3.2 8.0 0.00 0.00 0.00 64 1016.4
20260502194225 18 232 3.2 4.8 0.00 0.00 0.00 64 1016.5
20260502193220 19 218 1.6 6.4 0.00 0.00 0.00 62 1016.6
20260502193008 18 248 1.6 6.4 0.00 0.00 0.00 62 1016.3
20260502192220 19 105 1.6 6.4 0.00 0.00 0.00 59 1016.4
20260502191608 19 294 1.6 6.4 0.00 0.00 0.00 59 1016.1
20260502191222 20 208 3.2 8.0 0.00 0.00 0.00 59 1016.3
20260502190217 20 219 4.8 8.0 0.00 0.00 0.00 58 1016.2
20260502190059 20 235 3.2 8.0 0.00 0.00 0.00 58 1016.0
20260502185223 20 225 3.2 6.4 0.00 0.00 0.00 57 1016.2
20260502184555 20 222 3.2 6.4 0.00 0.00 0.00 56 1016.0
20260502184217 21 238 3.2 4.8 0.00 0.00 0.00 56 1016.2
20260502183223 21 222 3.2 6.4 0.00 0.00 0.00 54 1016.1
20260502183109 21 217 1.6 6.4 0.00 0.00 0.00 54 1015.9
20260502182207 21 234 3.2 4.8 0.00 0.00 0.00 52 1016.1
20260502181552 22 219 1.6 4.8 0.00 0.00 0.00 51 1015.8
20260502181224 22 236 3.2 4.8 0.00 0.00 0.00 50 1016.2
20260502180105 22 233 1.6 3.2 0.00 0.00 0.00 49 1015.9
20260502170226 26 221 1.6 6.4 0.00 0.00 0.00 37 1016.3
20260502163233 28 259 1.6 4.8 0.00 0.00 0.00 33 1016.5
20260502163051 27 251 0.0 4.8 0.00 0.00 0.00 33 1016.3
20260502161547 27 250 0.0 4.8 0.00 0.00 0.00 33 1016.6
20260502161225 27 113 1.6 9.7 0.00 0.00 0.00 34 1016.8
20260502160222 27 84 3.2 9.7 0.00 0.00 0.00 35 1017.0
20260502152221 27 74 3.2 9.7 0.00 0.00 0.00 34 1017.4
20260502151512 27 228 3.2 9.7 0.00 0.00 0.00 36 1017.3
20260502151218 27 196 3.2 9.7 0.00 0.00 0.00 36 1017.5
20260502150221 27 219 3.2 6.4 0.00 0.00 0.00 36 1017.6
20260502130227 26 116 4.8 14.5 0.00 0.00 0.00 40 1019.4
20260502123215 26 150 4.8 12.9 0.00 0.00 0.00 40 1019.7
20260502123020 25 198 1.6 12.9 0.00 0.00 0.00 43 1019.7
20260502122217 25 109 3.2 14.5 0.00 0.00 0.00 44 1019.8
20260502121517 25 118 4.8 14.5 0.00 0.00 0.00 44 1019.9
20260502121223 25 172 4.8 11.3 0.00 0.00 0.00 46 1020.0
20260502120213 25 168 3.2 11.3 0.00 0.00 0.00 44 1020.0
20260502115220 25 143 3.2 11.3 0.00 0.00 0.00 45 1020.2
20260502114601 25 213 3.2 12.9 0.00 0.00 0.00 45 1020.2
20260502113229 25 225 3.2 8.0 0.00 0.00 0.00 45 1020.6
20260502113047 25 227 4.8 8.0 0.00 0.00 0.00 47 1020.5
20260502112221 24 67 3.2 8.0 0.00 0.00 0.00 46 1020.7
20260502111509 23 196 3.2 8.0 0.00 0.00 0.00 46 1020.7
20260502111223 24 37 3.2 11.3 0.00 0.00 0.00 45 1020.9
20260502110219 23 81 4.8 9.7 0.00 0.00 0.00 47 1021.0
20260502110041 23 53 1.6 9.7 0.00 0.00 0.00 46 1020.9
20260502105224 23 164 3.2 11.3 0.00 0.00 0.00 48 1021.0
20260502104553 23 317 4.8 11.3 0.00 0.00 0.00 50 1021.1
20260502104218 23 129 3.2 9.7 0.00 0.00 0.00 47 1021.2
20260502103223 22 213 3.2 9.7 0.00 0.00 0.00 49 1021.3
20260502103105 22 171 3.2 9.7 0.00 0.00 0.00 49 1021.3
20260502102223 22 246 4.8 12.9 0.00 0.00 0.00 50 1021.4
20260502101622 22 120 1.6 11.3 0.00 0.00 0.00 48 1021.4
20260502101210 22 192 3.2 12.9 0.00 0.00 0.00 48 1021.5
20260502100237 22 192 3.2 6.4 0.00 0.00 0.00 48 1021.7
20260502091227 20 215 1.6 8.0 0.00 0.00 0.00 50 1022.3
20260502071529 17 28 1.6 6.4 0.00 0.00 0.00 52 1022.9
20260502071224 17 38 1.6 4.8 0.00 0.00 0.00 51 1022.8
20260502070227 16 348 1.6 4.8 0.00 0.00 0.00 53 1022.8
20260502070051 16 15 1.6 4.8 0.00 0.00 0.00 53 1023.0
20260502065223 15 38 1.6 4.8 0.00 0.00 0.00 56 1022.9
20260502064533 15 62 0.0 4.8 0.00 0.00 0.00 58 1023.0
20260502064222 15 340 1.6 3.2 0.00 0.00 0.00 58 1022.9
20260502063229 13 344 1.6 4.8 0.00 0.00 0.00 59 1022.8
20260502063111 13 332 0.0 4.8 0.00 0.00 0.00 59 1022.9
20260502062213 13 0 0.0 1.6 0.00 0.00 0.00 61 1022.8
20260502061527 12 298 0.0 3.2 0.00 0.00 0.00 64 1022.9
20260502061217 12 263 0.0 0.0 0.00 0.00 0.00 66 1022.8
20260502060225 11 236 0.0 1.6 0.00 0.00 0.00 67 1022.7
20260502060037 -17 0.0 0.0 0.00 0.00 0.00 1022.8
20260502055233 11 236 0.0 3.2 0.00 0.00 0.00 67 1022.7
20260502054540 10 236 0.0 3.2 0.00 0.00 0.00 67 1022.9
20260502054214 11 237 0.0 4.8 0.00 0.00 0.00 67 1022.7
20260502053208 10 249 1.6 4.8 0.00 0.00 0.00 68 1022.7
20260502053008 10 239 0.0 4.8 0.00 0.00 0.00 68 1022.8
20260502052216 10 217 1.6 4.8 0.00 0.00 0.00 69 1022.6
20260502051525 10 242 0.0 3.2 0.00 0.00 0.00 69 1022.7
20260502051224 10 228 1.6 6.4 0.00 0.00 0.00 70 1022.5
20260502050220 9 233 3.2 6.4 0.00 0.00 0.00 71 1022.5
20260502050108 9 233 1.6 6.4 0.00 0.00 0.00 71 1022.6
20260502045218 9 236 1.6 6.4 0.00 0.00 0.00 72 1022.4
20260502044530 8 236 0.0 6.4 0.00 0.00 0.00 73 1022.6
20260502044225 8 216 3.2 4.8 0.00 0.00 0.00 73 1022.4
20260502043217 8 227 3.2 4.8 0.00 0.00 0.00 73 1022.4
20260502043020 8 224 3.2 6.4 0.00 0.00 0.00 73 1022.5
20260502042223 8 223 1.6 4.8 0.00 0.00 0.00 73 1022.4
20260502041536 8 238 1.6 4.8 0.00 0.00 0.00 73 1022.5
20260502041224 8 219 1.6 6.4 0.00 0.00 0.00 72 1022.4
20260502040216 8 227 1.6 4.8 0.00 0.00 0.00 72 1022.4
20260502034519 8 299 0.0 6.4 0.00 0.00 0.00 71 1022.6
20260502034229 8 236 1.6 6.4 0.00 0.00 0.00 71 1022.4
20260502033224 9 249 3.2 6.4 0.00 0.00 0.00 71 1022.4
20260502033108 8 250 0.0 6.4 0.00 0.00 0.00 71 1022.6
20260502032230 8 238 3.2 8.0 0.00 0.00 0.00 72 1022.5
20260502031508 8 221 3.2 8.0 0.00 0.00 0.00 72 1022.6
20260502031216 8 218 3.2 4.8 0.00 0.00 0.00 73 1022.4
20260502030112 8 240 1.6 4.8 0.00 0.00 0.00 73 1022.6
20260502025216 8 232 1.6 6.4 0.00 0.00 0.00 72 1022.5
20260502024558 8 217 0.0 3.2 0.00 0.00 0.00 72 1022.7
20260502024223 8 229 1.6 4.8 0.00 0.00 0.00 72 1022.6
20260502023218 9 250 1.6 3.2 0.00 0.00 0.00 72 1022.6
20260502023059 8 250 1.6 4.8 0.00 0.00 0.00 72 1022.8
20260502022214 9 216 1.6 4.8 0.00 0.00 0.00 71 1022.6
20260502021538 8 216 0.0 4.8 0.00 0.00 0.00 71 1022.8
20260502021219 9 215 1.6 3.2 0.00 0.00 0.00 71 1022.7
20260502020216 9 224 0.0 3.2 0.00 0.00 0.00 71 1022.7
20260502020031 8 224 1.6 3.2 0.00 0.00 0.00 71 1022.8
20260502015218 9 234 0.0 4.8 0.00 0.00 0.00 70 1022.7
20260502014541 9 242 0.0 3.2 0.00 0.00 0.00 70 1022.9
20260502014220 9 242 1.6 4.8 0.00 0.00 0.00 70 1022.8
20260502013207 9 244 1.6 3.2 0.00 0.00 0.00 70 1022.7
20260502013103 9 244 0.0 3.2 0.00 0.00 0.00 70 1022.9
20260502011520 9 244 0.0 3.2 0.00 0.00 0.00 69 1023.0
20260502011229 10 244 0.0 3.2 0.00 0.00 0.00 69 1022.9
20260502010217 10 244 1.6 3.2 0.00 0.00 0.00 68 1022.9
20260502010014 10 244 0.0 3.2 0.00 0.00 0.00 68 1023.0
20260502004522 10 244 0.0 3.2 0.00 0.00 0.00 68 1023.1
20260502004215 10 244 0.0 3.2 0.00 0.00 0.00 68 1023.0
20260502003218 10 244 0.0 8.0 0.00 0.00 0.00 67 1023.1
20260502003034 10 244 0.0 8.0 0.00 0.00 0.00 67 1023.2
20260502002227 10 251 0.0 1.6 0.00 0.00 0.00 67 1023.2
20260502001526 10 251 0.0 1.6 0.00 0.00 0.00 67 1023.3
20260502001221 10 251 1.6 1.6 0.00 0.00 0.00 67 1023.2
20260502000233 10 251 0.0 3.2 0.00 0.00 0.00 66 1023.2
20260502000052 10 251 0.0 1.6 0.00 0.00 0.00 66 1023.3
20260501235213 10 251 0.0 1.6 0.00 0.00 0.00 66 1023.3
20260501234559 10 255 0.0 1.6 0.00 0.00 0.00 65 1023.4
20260501234216 11 255 0.0 1.6 0.00 0.00 0.00 65 1023.2
20260501233214 11 263 0.0 1.6 0.00 0.00 0.00 65 1023.3
20260501233103 11 263 0.0 1.6 0.00 0.00 0.00 64 1023.4
20260501231555 11 238 0.0 1.6 0.00 0.00 0.00 63 1023.4
20260501231217 11 238 0.0 1.6 0.00 0.00 0.00 63 1023.3
20260501230214 11 238 0.0 1.6 0.00 0.00 0.00 62 1023.4
20260501230039 11 238 0.0 1.6 0.00 0.00 0.00 62 1023.5
20260501225212 11 238 0.0 1.6 0.00 0.00 0.00 62 1023.4
20260501224549 11 238 0.0 1.6 0.00 0.00 0.00 62 1023.5
20260501224219 11 236 0.0 3.2 0.00 0.00 0.00 62 1023.5
20260501223220 11 340 0.0 1.6 0.00 0.00 0.00 63 1023.5
20260501223040 11 340 0.0 3.2 0.00 0.00 0.00 63 1023.6
20260501221506 11 259 0.0 1.6 0.00 0.00 0.00 63 1023.5
20260501221228 12 247 1.6 3.2 0.00 0.00 0.00 63 1023.4